Regional Weather Roundup
Issued by NWS

Home | Current Version | Previous Version | Text Only | Print | Product List | Glossary Off
Versions: 1 2 3 4 5 6 7 8 9 10 11 12 13 14 15 16 17 18 19 20 21 22 23 24 25 26 27 28 29 30 31 32 33 34 35 36 37 38 39 40 41 42 43 44 45 46 47 48 49 50

000
ASUS45 KBOI 230410
RWRID
WEATHER ROUNDUP FOR IDAHO
NATIONAL WEATHER SERVICE BOISE ID
900 PM MST SAT NOV 22 2014

NOTE: "FAIR" INDICATES FEW OR NO CLOUDS BELOW 12000 FEET
WITH NO SIGNIFICANT WEATHER AND/OR OBSTRUCTIONS TO VISIBILITY

IDZ012-014-230500-
SOUTHWEST IDAHO


CITY           SKY/WX    TMP DP  RH WIND       PRES   REMARKS
BOISE          MOCLDY    37  33  85 NW6       29.97R WCI  32
CALDWELL       NOT AVBL
MOUNTAIN HOME  MOCLDY    38  35  87 N9        29.96R WCI  31
$$

IDZ016-017-230500-
SOUTHCENTRAL IDAHO


CITY           SKY/WX    TMP DP  RH WIND       PRES   REMARKS
BURLEY         CLOUDY    34  31  88 W24G36    29.86R WCI  21
JEROME         CLOUDY    33  31  92 SW14      29.92R WCI  23
TWIN FALLS     CLOUDY    36  30  79 SW16      29.93R WCI  26
$$

IDZ019>023-230500-
SOUTHEAST IDAHO


CITY           SKY/WX    TMP DP  RH WIND       PRES   REMARKS
IDAHO FALLS    PTCLDY    33  30  88 SW15      29.77R WCI  23
POCATELLO      CLEAR     35  30  82 SW28      29.83R WCI  22
REXBURG        CLOUDY    32  31  96 S9        29.76R WCI  24
$$

IDZ006-010-011-018-031-032-230500-
CENTRAL IDAHO MOUNTAINS


CITY           SKY/WX    TMP DP  RH WIND       PRES   REMARKS
MCCALL         LGT SNOW  30  28  92 W6        29.85R VSB 3/4 WCI  24
HAILEY         MOCLDY    30  21  69 NW7       29.84R WCI  23
STANLEY          N/A     27  23  85 CALM      29.82R
SALMON         CLOUDY    30  21  69 CALM      29.77S
CHALLIS        CLOUDY    32  23  69 W6        29.78R WCI  26
$$

IDZ002-004-006-007-026-230500-
NORTHERN IDAHO


CITY           SKY/WX    TMP DP  RH WIND       PRES   REMARKS
LEWISTON       MOCLDY    44  33  65 W10       29.92R
LOWELL           N/A     36  35  96 CALM      29.94R
COEUR D`ALENE  CLOUDY    37  30  75 S6        29.85R WCI  33
MULLAN PASS    SNOW      24  24 100 VRB6G17   29.74R VSB 1/2 WCI  17
$$


USA.gov is the U.S. government's official web portal to all federal, state and local government web resources and services.